Regional Weather Roundup
Issued by NWS

Home | Current Version | Previous Version | Text Only | Print | Product List | Glossary On
Versions: 1 2 3 4 5 6 7 8 9 10 11 12 13 14 15 16 17 18 19 20 21 22 23 24 25 26 27 28 29 30 31 32 33 34 35 36 37 38 39 40 41 42 43 44 45 46 47 48 49 50
000
ASUS42 KFFC 300610
RWRGA
WEATHER ROUNDUP FOR GEORGIA
NATIONAL WEATHER SERVICE PEACHTREE CITY GA
200 AM EDT THU JUL 30 2015

NOTE: "FAIR" INDICATES FEW OR NO CLOUDS BELOW 12,000 FEET WITH NO
SIGNIFICANT WEATHER AND/OR OBSTRUCTIONS TO VISIBILITY.

* = USE WITH CAUTION. THE STATIONS MARKED WITH AN ASTERISK MAY NOT
REPORT WEATHER SUCH AS PRECIPITATION, FOG, OR THUNDER AND ARE NOT
QUALITY CONTROLLED BY NWS.

THE REMARK "TC" DENOTES TEMPERATURE READING IN DEGREES CELSIUS.

GAZ001>058-300700-
NORTH GEORGIA

CITY           SKY/WX    TMP DP  RH WIND       PRES   REMARKS
ATLANTA        MOCLDY    80  74  81 NW3       30.00F
6HR MIN TEMP:  80; 6HR MAX TEMP:  88;

ATHENS         PTCLDY    76  72  87 CALM      30.00F
6HR MIN TEMP:  76; 6HR MAX TEMP:  81; 6HR PCP: TRACE;

CHAMBLEE       PTCLDY    78  74  87 CALM      30.01F
6HR MIN TEMP:  77; 6HR MAX TEMP:  89;

PEACHTREE CITY PTCLDY    78  75  90 CALM      30.00F
6HR MIN TEMP:  78; 6HR MAX TEMP:  89;

ROME           PTCLDY    78  75  90 CALM      29.99F
6HR MIN TEMP:  78; 6HR MAX TEMP:  90;

WEST ATLANTA   PTCLDY    78  75  90 CALM      30.00F
6HR MIN TEMP:  78; 6HR MAX TEMP:  88;

GAINESVILLE    MOCLDY    77  71  82 N3        30.04F
6HR MIN TEMP:  76; 6HR MAX TEMP:  85;

CARTERSVILLE   PTCLDY    75  72  90 CALM      30.01F
6HR MIN TEMP:  74; 6HR MAX TEMP:  87;



CITY           SKY/WX    TMP DP  RH WIND       PRES   REMARKS
DALTON*        PTCLDY    77  75  94 CALM      29.99F
MARIETTA       PTCLDY    80  74  81 W3        30.01F
BLAIRSVILLE*     N/A     72  64  76 CALM      30.07F HAZE
$$

GAZ059>098-102>109-300700-
CENTRAL GEORGIA

CITY           SKY/WX    TMP DP  RH WIND       PRES   REMARKS
AUGUSTA-BUSH   RAIN      77  75  93 SE8       29.98F FOG
6HR MIN TEMP:  77; 6HR MAX TEMP:  90; 6HR PCP:  1.60;

AUGUSTA-DANIEL MOCLDY    78  75  90 SE8       30.00F
6HR MIN TEMP:  78; 6HR MAX TEMP:  90; 6HR PCP: TRACE;

COLUMBUS       LGT RAIN  79  73  82 NW5       29.98F
6HR MIN TEMP:  79; 6HR MAX TEMP:  87; 6HR PCP: TRACE;

MACON          MOCLDY    77  75  93 CALM      29.98R
6HR MIN TEMP:  77; 6HR MAX TEMP:  84;

ROBINS AFB     CLOUDY    78  77  96 SE9       29.98R


CITY           SKY/WX    TMP DP  RH WIND       PRES   REMARKS
LAGRANGE*      MOCLDY    81  80  96 CALM      29.99F HX  91
SYLVANIA*      CLEAR     79  76  90 CALM      29.99F
MILLEDGEVILLE* MOCLDY    79  73  83 CALM      29.98R
$$

GAZ099>101-110>166-300700-
SOUTH GEORGIA

CITY           SKY/WX    TMP DP  RH WIND       PRES   REMARKS
SAVANNAH       CLEAR     78  75  90 W3        29.98S
6HR MIN TEMP:  78; 6HR MAX TEMP:  85;

VALDOSTA       CLOUDY    77  76  96 CALM      29.98R
6HR MIN TEMP:  77; 6HR MAX TEMP:  82; 6HR PCP:  0.03;

ALMA           MOCLDY    75  74  96 CALM      29.98F
6HR MIN TEMP:  75; 6HR MAX TEMP:  90; 6HR PCP:  1.68;

ST SIMONS      CLEAR     78  76  93 W5        29.95F
6HR MIN TEMP:  78; 6HR MAX TEMP:  82;

FT STEWART     CLEAR     77  73  88 CALM      29.95F
ALBANY         MOCLDY    77  75  93 CALM      29.99S
HUNTER AFB     CLEAR     78  78 100 SW3       29.95F
MOODY AFB      CLOUDY    77  74  93 W1        29.97F
BRUNSWICK      CLEAR     77  75  94 CALM      29.97F


CITY           SKY/WX    TMP DP  RH WIND       PRES   REMARKS
BAINBRIDGE*    CLOUDY    79  77  94 SW3       29.96F FOG
MOULTRIE*      MOCLDY    75  73  94 E3        29.99F
VIDALIA*       HVY RAIN  77  73  88 SE3       29.99F
WAYCROSS*      MOCLDY    79  78  99 CALM      29.97S
DOUGLAS*       CLOUDY    79  77  94 CALM      29.99F
$$



USA.gov is the U.S. government's official web portal to all federal, state and local government web resources and services.